owner,sensor,date,latitude,longitude,sea_surface_height_above_sea_level,qcFlag 
COMPS,ioos:station:USF.COMPS:SHP:1,2010-01-01T00:00:00Z,30.0600,-84.2910,0.008,1111122 
COMPS,ioos:station:USF.COMPS:SHP:1,2010-01-01T00:06:00Z,30.0600,-84.2910,-0.002,1111122 
COMPS,ioos:station:USF.COMPS:SHP:1,2010-01-01T00:12:00Z,30.0600,-84.2910,-0.01,1111122 
COMPS,ioos:station:USF.COMPS:SHP:1,2010-01-01T00:18:00Z,30.0600,-84.2910,-0.017,1111122 
COMPS,ioos:station:USF.COMPS:SHP:1,2010-01-01T00:24:00Z,30.0600,-84.2910,-0.03,1111122 
COMPS,ioos:station:USF.COMPS:SHP:1,2010-01-01T00:30:00Z,30.0600,-84.2910,-0.045,1111122 
COMPS,ioos:station:USF.COMPS:SHP:1,2010-01-01T00:36:00Z,30.0600,-84.2910,-0.037,1111122 
COMPS,ioos:station:USF.COMPS:SHP:1,2010-01-01T00:42:00Z,30.0600,-84.2910,-0.026,1111122 
COMPS,ioos:station:USF.COMPS:SHP:1,2010-01-01T00:48:00Z,30.0600,-84.2910,-0.027,1111122 
COMPS,ioos:station:USF.COMPS:SHP:1,2010-01-01T00:54:00Z,30.0600,-84.2910,-0.046,1111122 
COMPS,ioos:station:USF.COMPS:SHP:1,2010-01-01T01:00:00Z,30.0600,-84.2910,-0.045,1111122 
COMPS,ioos:station:USF.COMPS:SHP:1,2010-01-01T01:06:00Z,30.0600,-84.2910,-0.027,1111122 
COMPS,ioos:station:USF.COMPS:SHP:1,2010-01-01T01:12:00Z,30.0600,-84.2910,-0.01,1111122 
COMPS,ioos:station:USF.COMPS:SHP:1,2010-01-01T01:18:00Z,30.0600,-84.2910,0.008,1111122 
COMPS,ioos:station:USF.COMPS:SHP:1,2010-01-01T01:24:00Z,30.0600,-84.2910,0.018,1111122 
COMPS,ioos:station:USF.COMPS:SHP:1,2010-01-01T01:30:00Z,30.0600,-84.2910,0.029,1111122 
COMPS,ioos:station:USF.COMPS:SHP:1,2010-01-01T01:36:00Z,30.0600,-84.2910,0.034,1111122 
COMPS,ioos:station:USF.COMPS:SHP:1,2010-01-01T01:42:00Z,30.0600,-84.2910,0.052,1111122 
COMPS,ioos:station:USF.COMPS:SHP:1,2010-01-01T01:48:00Z,30.0600,-84.2910,0.067,1111122 
COMPS,ioos:station:USF.COMPS:SHP:1,2010-01-01T01:54:00Z,30.0600,-84.2910,0.075,1111122 
COMPS,ioos:station:USF.COMPS:SHP:1,2010-01-01T02:00:00Z,30.0600,-84.2910,0.089,1111122 
COMPS,ioos:station:USF.COMPS:SHP:1,2010-01-01T02:06:00Z,30.0600,-84.2910,0.105,1111122 
COMPS,ioos:station:USF.COMPS:SHP:1,2010-01-01T02:12:00Z,30.0600,-84.2910,0.121,1111122 
COMPS,ioos:station:USF.COMPS:SHP:1,2010-01-01T02:18:00Z,30.0600,-84.2910,0.139,1111122 
COMPS,ioos:station:USF.COMPS:SHP:1,2010-01-01T02:24:00Z,30.0600,-84.2910,0.158,1111122 
COMPS,ioos:station:USF.COMPS:SHP:1,2010-01-01T02:30:00Z,30.0600,-84.2910,0.176,1111122 
COMPS,ioos:station:USF.COMPS:SHP:1,2010-01-01T02:36:00Z,30.0600,-84.2910,0.189,1111122 
COMPS,ioos:station:USF.COMPS:SHP:1,2010-01-01T02:42:00Z,30.0600,-84.2910,0.202,1111122 
COMPS,ioos:station:USF.COMPS:SHP:1,2010-01-01T02:48:00Z,30.0600,-84.2910,0.225,1111122 
COMPS,ioos:station:USF.COMPS:SHP:1,2010-01-01T02:54:00Z,30.0600,-84.2910,0.249,1111122 
COMPS,ioos:station:USF.COMPS:SHP:1,2010-01-01T03:00:00Z,30.0600,-84.2910,0.27,1111122 
COMPS,ioos:station:USF.COMPS:SHP:1,2010-01-01T03:06:00Z,30.0600,-84.2910,0.293,1111122 
COMPS,ioos:station:USF.COMPS:SHP:1,2010-01-01T03:12:00Z,30.0600,-84.2910,0.303,1111122 
COMPS,ioos:station:USF.COMPS:SHP:1,2010-01-01T03:18:00Z,30.0600,-84.2910,0.318,1111122 
COMPS,ioos:station:USF.COMPS:SHP:1,2010-01-01T03:24:00Z,30.0600,-84.2910,0.342,1111122 
COMPS,ioos:station:USF.COMPS:SHP:1,2010-01-01T03:30:00Z,30.0600,-84.2910,0.365,1111122 
COMPS,ioos:station:USF.COMPS:SHP:1,2010-01-01T03:36:00Z,30.0600,-84.2910,0.391,1111122 
COMPS,ioos:station:USF.COMPS:SHP:1,2010-01-01T03:42:00Z,30.0600,-84.2910,0.415,1111122 
COMPS,ioos:station:USF.COMPS:SHP:1,2010-01-01T03:48:00Z,30.0600,-84.2910,0.427,1111122 
COMPS,ioos:station:USF.COMPS:SHP:1,2010-01-01T03:54:00Z,30.0600,-84.2910,0.433,1111122 
COMPS,ioos:station:USF.COMPS:SHP:1,2010-01-01T04:00:00Z,30.0600,-84.2910,0.447,1111122 
COMPS,ioos:station:USF.COMPS:SHP:1,2010-01-01T04:06:00Z,30.0600,-84.2910,0.474,1111122 
COMPS,ioos:station:USF.COMPS:SHP:1,2010-01-01T04:12:00Z,30.0600,-84.2910,0.493,1111122 
COMPS,ioos:station:USF.COMPS:SHP:1,2010-01-01T04:18:00Z,30.0600,-84.2910,0.509,1111122 
COMPS,ioos:station:USF.COMPS:SHP:1,2010-01-01T04:24:00Z,30.0600,-84.2910,0.532,1111122 
COMPS,ioos:station:USF.COMPS:SHP:1,2010-01-01T04:30:00Z,30.0600,-84.2910,0.542,1111122 
COMPS,ioos:station:USF.COMPS:SHP:1,2010-01-01T04:36:00Z,30.0600,-84.2910,0.547,1111122 
COMPS,ioos:station:USF.COMPS:SHP:1,2010-01-01T04:42:00Z,30.0600,-84.2910,0.56,1111122 
COMPS,ioos:station:USF.COMPS:SHP:1,2010-01-01T04:48:00Z,30.0600,-84.2910,0.574,1111122 
COMPS,ioos:station:USF.COMPS:SHP:1,2010-01-01T04:54:00Z,30.0600,-84.2910,0.591,1111122 
COMPS,ioos:station:USF.COMPS:SHP:1,2010-01-01T05:00:00Z,30.0600,-84.2910,0.609,1111122 
COMPS,ioos:station:USF.COMPS:SHP:1,2010-01-01T05:06:00Z,30.0600,-84.2910,0.621,1111122 
COMPS,ioos:station:USF.COMPS:SHP:1,2010-01-01T05:12:00Z,30.0600,-84.2910,0.626,1111122 
COMPS,ioos:station:USF.COMPS:SHP:1,2010-01-01T05:18:00Z,30.0600,-84.2910,0.634,1111122 
COMPS,ioos:station:USF.COMPS:SHP:1,2010-01-01T05:24:00Z,30.0600,-84.2910,0.643,1111122 
COMPS,ioos:station:USF.COMPS:SHP:1,2010-01-01T05:30:00Z,30.0600,-84.2910,0.655,1111122 
COMPS,ioos:station:USF.COMPS:SHP:1,2010-01-01T05:36:00Z,30.0600,-84.2910,0.666,1111122 
COMPS,ioos:station:USF.COMPS:SHP:1,2010-01-01T05:42:00Z,30.0600,-84.2910,0.686,1111122 
COMPS,ioos:station:USF.COMPS:SHP:1,2010-01-01T05:48:00Z,30.0600,-84.2910,0.695,1111122 
COMPS,ioos:station:USF.COMPS:SHP:1,2010-01-01T05:54:00Z,30.0600,-84.2910,0.707,1111122 
COMPS,ioos:station:USF.COMPS:SHP:1,2010-01-01T06:00:00Z,30.0600,-84.2910,0.709,1111122 
COMPS,ioos:station:USF.COMPS:SHP:1,2010-01-01T06:06:00Z,30.0600,-84.2910,0.714,1111122 
COMPS,ioos:station:USF.COMPS:SHP:1,2010-01-01T06:12:00Z,30.0600,-84.2910,0.716,1111122 
COMPS,ioos:station:USF.COMPS:SHP:1,2010-01-01T06:18:00Z,30.0600,-84.2910,0.724,1111122 
COMPS,ioos:station:USF.COMPS:SHP:1,2010-01-01T06:24:00Z,30.0600,-84.2910,0.738,1111122 
COMPS,ioos:station:USF.COMPS:SHP:1,2010-01-01T06:30:00Z,30.0600,-84.2910,0.742,1111122 
COMPS,ioos:station:USF.COMPS:SHP:1,2010-01-01T06:36:00Z,30.0600,-84.2910,0.741,1111122 
COMPS,ioos:station:USF.COMPS:SHP:1,2010-01-01T06:42:00Z,30.0600,-84.2910,0.74,1111122 
COMPS,ioos:station:USF.COMPS:SHP:1,2010-01-01T06:48:00Z,30.0600,-84.2910,0.727,1111122 
COMPS,ioos:station:USF.COMPS:SHP:1,2010-01-01T06:54:00Z,30.0600,-84.2910,0.725,1111122 
COMPS,ioos:station:USF.COMPS:SHP:1,2010-01-01T07:00:00Z,30.0600,-84.2910,0.732,1111122 
COMPS,ioos:station:USF.COMPS:SHP:1,2010-01-01T07:06:00Z,30.0600,-84.2910,0.718,1111122 
COMPS,ioos:station:USF.COMPS:SHP:1,2010-01-01T07:12:00Z,30.0600,-84.2910,0.715,1111122 
COMPS,ioos:station:USF.COMPS:SHP:1,2010-01-01T07:18:00Z,30.0600,-84.2910,0.705,1111122 
COMPS,ioos:station:USF.COMPS:SHP:1,2010-01-01T07:24:00Z,30.0600,-84.2910,0.694,1111122 
COMPS,ioos:station:USF.COMPS:SHP:1,2010-01-01T07:30:00Z,30.0600,-84.2910,0.676,1111122 
COMPS,ioos:station:USF.COMPS:SHP:1,2010-01-01T07:36:00Z,30.0600,-84.2910,0.664,1111122 
COMPS,ioos:station:USF.COMPS:SHP:1,2010-01-01T07:42:00Z,30.0600,-84.2910,0.65,1111122 
COMPS,ioos:station:USF.COMPS:SHP:1,2010-01-01T07:48:00Z,30.0600,-84.2910,0.636,1111122 
COMPS,ioos:station:USF.COMPS:SHP:1,2010-01-01T07:54:00Z,30.0600,-84.2910,0.617,1111122 
COMPS,ioos:station:USF.COMPS:SHP:1,2010-01-01T08:00:00Z,30.0600,-84.2910,0.598,1111122 
COMPS,ioos:station:USF.COMPS:SHP:1,2010-01-01T08:06:00Z,30.0600,-84.2910,0.567,1111122 
COMPS,ioos:station:USF.COMPS:SHP:1,2010-01-01T08:12:00Z,30.0600,-84.2910,0.518,1111122 
COMPS,ioos:station:USF.COMPS:SHP:1,2010-01-01T08:18:00Z,30.0600,-84.2910,0.499,1111122 
COMPS,ioos:station:USF.COMPS:SHP:1,2010-01-01T08:24:00Z,30.0600,-84.2910,0.515,1111122 
COMPS,ioos:station:USF.COMPS:SHP:1,2010-01-01T08:30:00Z,30.0600,-84.2910,0.501,1111122 
COMPS,ioos:station:USF.COMPS:SHP:1,2010-01-01T08:36:00Z,30.0600,-84.2910,0.448,1111122 
COMPS,ioos:station:USF.COMPS:SHP:1,2010-01-01T08:42:00Z,30.0600,-84.2910,0.421,1111122 
COMPS,ioos:station:USF.COMPS:SHP:1,2010-01-01T08:48:00Z,30.0600,-84.2910,0.404,1111122 
COMPS,ioos:station:USF.COMPS:SHP:1,2010-01-01T08:54:00Z,30.0600,-84.2910,0.37,1111122 
COMPS,ioos:station:USF.COMPS:SHP:1,2010-01-01T09:00:00Z,30.0600,-84.2910,0.338,1111122 
COMPS,ioos:station:USF.COMPS:SHP:1,2010-01-01T09:06:00Z,30.0600,-84.2910,0.314,1111122 
COMPS,ioos:station:USF.COMPS:SHP:1,2010-01-01T09:12:00Z,30.0600,-84.2910,0.284,1111122 
COMPS,ioos:station:USF.COMPS:SHP:1,2010-01-01T09:18:00Z,30.0600,-84.2910,0.252,1111122 
COMPS,ioos:station:USF.COMPS:SHP:1,2010-01-01T09:24:00Z,30.0600,-84.2910,0.225,1111122 
COMPS,ioos:station:USF.COMPS:SHP:1,2010-01-01T09:30:00Z,30.0600,-84.2910,0.194,1111122 
COMPS,ioos:station:USF.COMPS:SHP:1,2010-01-01T09:36:00Z,30.0600,-84.2910,0.155,1111122 
COMPS,ioos:station:USF.COMPS:SHP:1,2010-01-01T09:42:00Z,30.0600,-84.2910,0.122,1111122 
COMPS,ioos:station:USF.COMPS:SHP:1,2010-01-01T09:48:00Z,30.0600,-84.2910,0.091,1111122 
COMPS,ioos:station:USF.COMPS:SHP:1,2010-01-01T09:54:00Z,30.0600,-84.2910,0.054,1111122 
COMPS,ioos:station:USF.COMPS:SHP:1,2010-01-01T10:00:00Z,30.0600,-84.2910,0.021,1111122 
COMPS,ioos:station:USF.COMPS:SHP:1,2010-01-01T10:06:00Z,30.0600,-84.2910,-0.007,1111122 
COMPS,ioos:station:USF.COMPS:SHP:1,2010-01-01T10:12:00Z,30.0600,-84.2910,-0.041,1111122 
COMPS,ioos:station:USF.COMPS:SHP:1,2010-01-01T10:18:00Z,30.0600,-84.2910,-0.075,1111122 
COMPS,ioos:station:USF.COMPS:SHP:1,2010-01-01T10:24:00Z,30.0600,-84.2910,-0.102,1111122 
COMPS,ioos:station:USF.COMPS:SHP:1,2010-01-01T10:30:00Z,30.0600,-84.2910,-0.131,1111122 
COMPS,ioos:station:USF.COMPS:SHP:1,2010-01-01T10:36:00Z,30.0600,-84.2910,-0.162,1111122 
COMPS,ioos:station:USF.COMPS:SHP:1,2010-01-01T10:42:00Z,30.0600,-84.2910,-0.192,1111122 
COMPS,ioos:station:USF.COMPS:SHP:1,2010-01-01T10:48:00Z,30.0600,-84.2910,-0.223,1111122 
COMPS,ioos:station:USF.COMPS:SHP:1,2010-01-01T10:54:00Z,30.0600,-84.2910,-0.254,1111122 
COMPS,ioos:station:USF.COMPS:SHP:1,2010-01-01T11:00:00Z,30.0600,-84.2910,-0.287,1111122 
COMPS,ioos:station:USF.COMPS:SHP:1,2010-01-01T11:06:00Z,30.0600,-84.2910,-0.318,1111122 
COMPS,ioos:station:USF.COMPS:SHP:1,2010-01-01T11:12:00Z,30.0600,-84.2910,-0.343,1111122 
COMPS,ioos:station:USF.COMPS:SHP:1,2010-01-01T11:18:00Z,30.0600,-84.2910,-0.368,1111122 
COMPS,ioos:station:USF.COMPS:SHP:1,2010-01-01T11:24:00Z,30.0600,-84.2910,-0.394,1111122 
COMPS,ioos:station:USF.COMPS:SHP:1,2010-01-01T11:30:00Z,30.0600,-84.2910,-0.419,1111122 
COMPS,ioos:station:USF.COMPS:SHP:1,2010-01-01T11:36:00Z,30.0600,-84.2910,-0.444,1111122 
COMPS,ioos:station:USF.COMPS:SHP:1,2010-01-01T11:42:00Z,30.0600,-84.2910,-0.468,1111122 
COMPS,ioos:station:USF.COMPS:SHP:1,2010-01-01T11:48:00Z,30.0600,-84.2910,-0.492,1111122 
COMPS,ioos:station:USF.COMPS:SHP:1,2010-01-01T11:54:00Z,30.0600,-84.2910,-0.516,1111122 
COMPS,ioos:station:USF.COMPS:SHP:1,2010-01-01T12:00:00Z,30.0600,-84.2910,-0.541,1111122 
COMPS,ioos:station:USF.COMPS:SHP:1,2010-01-01T12:06:00Z,30.0600,-84.2910,-0.563,1111122 
COMPS,ioos:station:USF.COMPS:SHP:1,2010-01-01T12:12:00Z,30.0600,-84.2910,-0.585,1111122 
COMPS,ioos:station:USF.COMPS:SHP:1,2010-01-01T12:18:00Z,30.0600,-84.2910,-0.612,1111122 
COMPS,ioos:station:USF.COMPS:SHP:1,2010-01-01T12:24:00Z,30.0600,-84.2910,-0.636,1111122 
COMPS,ioos:station:USF.COMPS:SHP:1,2010-01-01T12:30:00Z,30.0600,-84.2910,-0.661,1111122 
COMPS,ioos:station:USF.COMPS:SHP:1,2010-01-01T12:36:00Z,30.0600,-84.2910,-0.69,1111122 
COMPS,ioos:station:USF.COMPS:SHP:1,2010-01-01T12:42:00Z,30.0600,-84.2910,-0.723,1111122 
COMPS,ioos:station:USF.COMPS:SHP:1,2010-01-01T12:48:00Z,30.0600,-84.2910,-0.758,1111122 
COMPS,ioos:station:USF.COMPS:SHP:1,2010-01-01T12:54:00Z,30.0600,-84.2910,-0.788,1111122 
COMPS,ioos:station:USF.COMPS:SHP:1,2010-01-01T13:00:00Z,30.0600,-84.2910,-0.81,1111122 
COMPS,ioos:station:USF.COMPS:SHP:1,2010-01-01T13:06:00Z,30.0600,-84.2910,-0.804,1111122 
COMPS,ioos:station:USF.COMPS:SHP:1,2010-01-01T13:12:00Z,30.0600,-84.2910,-0.802,1111122 
COMPS,ioos:station:USF.COMPS:SHP:1,2010-01-01T13:18:00Z,30.0600,-84.2910,-0.802,1111122 
COMPS,ioos:station:USF.COMPS:SHP:1,2010-01-01T13:24:00Z,30.0600,-84.2910,-0.803,1111122 
COMPS,ioos:station:USF.COMPS:SHP:1,2010-01-01T13:30:00Z,30.0600,-84.2910,-0.803,1111122 
COMPS,ioos:station:USF.COMPS:SHP:1,2010-01-01T13:36:00Z,30.0600,-84.2910,-0.803,1111122 
COMPS,ioos:station:USF.COMPS:SHP:1,2010-01-01T13:42:00Z,30.0600,-84.2910,-0.803,1111122 
COMPS,ioos:station:USF.COMPS:SHP:1,2010-01-01T13:48:00Z,30.0600,-84.2910,-0.803,1111122 
COMPS,ioos:station:USF.COMPS:SHP:1,2010-01-01T13:54:00Z,30.0600,-84.2910,-0.803,1111122 
COMPS,ioos:station:USF.COMPS:SHP:1,2010-01-01T14:00:00Z,30.0600,-84.2910,-0.803,1111122 
COMPS,ioos:station:USF.COMPS:SHP:1,2010-01-01T14:06:00Z,30.0600,-84.2910,-0.802,1111122 
COMPS,ioos:station:USF.COMPS:SHP:1,2010-01-01T14:12:00Z,30.0600,-84.2910,-0.802,1111122 
COMPS,ioos:station:USF.COMPS:SHP:1,2010-01-01T14:18:00Z,30.0600,-84.2910,-0.802,1111122 
COMPS,ioos:station:USF.COMPS:SHP:1,2010-01-01T14:24:00Z,30.0600,-84.2910,-0.802,1111122 
COMPS,ioos:station:USF.COMPS:SHP:1,2010-01-01T14:30:00Z,30.0600,-84.2910,-0.802,1111122 
COMPS,ioos:station:USF.COMPS:SHP:1,2010-01-01T14:36:00Z,30.0600,-84.2910,-0.802,1111122 
COMPS,ioos:station:USF.COMPS:SHP:1,2010-01-01T14:42:00Z,30.0600,-84.2910,-0.802,1111122 
COMPS,ioos:station:USF.COMPS:SHP:1,2010-01-01T14:48:00Z,30.0600,-84.2910,-0.802,1111122 
COMPS,ioos:station:USF.COMPS:SHP:1,2010-01-01T14:54:00Z,30.0600,-84.2910,-0.802,1111122 
COMPS,ioos:station:USF.COMPS:SHP:1,2010-01-01T15:00:00Z,30.0600,-84.2910,-0.802,1111122 
COMPS,ioos:station:USF.COMPS:SHP:1,2010-01-01T15:06:00Z,30.0600,-84.2910,-0.802,1111122 
COMPS,ioos:station:USF.COMPS:SHP:1,2010-01-01T15:12:00Z,30.0600,-84.2910,-0.802,1111122 
COMPS,ioos:station:USF.COMPS:SHP:1,2010-01-01T15:18:00Z,30.0600,-84.2910,-0.802,1111122 
COMPS,ioos:station:USF.COMPS:SHP:1,2010-01-01T15:24:00Z,30.0600,-84.2910,-0.802,1111122 
COMPS,ioos:station:USF.COMPS:SHP:1,2010-01-01T15:30:00Z,30.0600,-84.2910,-0.803,1111122 
COMPS,ioos:station:USF.COMPS:SHP:1,2010-01-01T15:36:00Z,30.0600,-84.2910,-0.803,1111122 
COMPS,ioos:station:USF.COMPS:SHP:1,2010-01-01T15:42:00Z,30.0600,-84.2910,-0.803,1111122 
COMPS,ioos:station:USF.COMPS:SHP:1,2010-01-01T15:48:00Z,30.0600,-84.2910,-0.803,1111122 
COMPS,ioos:station:USF.COMPS:SHP:1,2010-01-01T15:54:00Z,30.0600,-84.2910,-0.821,1111122 
COMPS,ioos:station:USF.COMPS:SHP:1,2010-01-01T16:00:00Z,30.0600,-84.2910,-0.817,1111122 
COMPS,ioos:station:USF.COMPS:SHP:1,2010-01-01T16:06:00Z,30.0600,-84.2910,-0.797,1111122 
COMPS,ioos:station:USF.COMPS:SHP:1,2010-01-01T16:12:00Z,30.0600,-84.2910,-0.775,1111122 
COMPS,ioos:station:USF.COMPS:SHP:1,2010-01-01T16:18:00Z,30.0600,-84.2910,-0.749,1111122 
COMPS,ioos:station:USF.COMPS:SHP:1,2010-01-01T16:24:00Z,30.0600,-84.2910,-0.72,1111122 
COMPS,ioos:station:USF.COMPS:SHP:1,2010-01-01T16:30:00Z,30.0600,-84.2910,-0.692,1111122 
COMPS,ioos:station:USF.COMPS:SHP:1,2010-01-01T16:36:00Z,30.0600,-84.2910,-0.671,1111122 
COMPS,ioos:station:USF.COMPS:SHP:1,2010-01-01T16:42:00Z,30.0600,-84.2910,-0.653,1111122 
COMPS,ioos:station:USF.COMPS:SHP:1,2010-01-01T16:48:00Z,30.0600,-84.2910,-0.631,1111122 
COMPS,ioos:station:USF.COMPS:SHP:1,2010-01-01T16:54:00Z,30.0600,-84.2910,-0.615,1111122 
COMPS,ioos:station:USF.COMPS:SHP:1,2010-01-01T17:00:00Z,30.0600,-84.2910,-0.602,1111122 
COMPS,ioos:station:USF.COMPS:SHP:1,2010-01-01T17:06:00Z,30.0600,-84.2910,-0.589,1111122 
COMPS,ioos:station:USF.COMPS:SHP:1,2010-01-01T17:12:00Z,30.0600,-84.2910,-0.568,1111122 
COMPS,ioos:station:USF.COMPS:SHP:1,2010-01-01T17:18:00Z,30.0600,-84.2910,-0.541,1111122 
COMPS,ioos:station:USF.COMPS:SHP:1,2010-01-01T17:24:00Z,30.0600,-84.2910,-0.52,1111122 
COMPS,ioos:station:USF.COMPS:SHP:1,2010-01-01T17:30:00Z,30.0600,-84.2910,-0.501,1111122 
COMPS,ioos:station:USF.COMPS:SHP:1,2010-01-01T17:36:00Z,30.0600,-84.2910,-0.473,1111122 
COMPS,ioos:station:USF.COMPS:SHP:1,2010-01-01T17:42:00Z,30.0600,-84.2910,-0.441,1111122 
COMPS,ioos:station:USF.COMPS:SHP:1,2010-01-01T17:48:00Z,30.0600,-84.2910,-0.411,1111122 
COMPS,ioos:station:USF.COMPS:SHP:1,2010-01-01T17:54:00Z,30.0600,-84.2910,-0.38,1111122 
COMPS,ioos:station:USF.COMPS:SHP:1,2010-01-01T18:00:00Z,30.0600,-84.2910,-0.343,1111122 
COMPS,ioos:station:USF.COMPS:SHP:1,2010-01-01T18:06:00Z,30.0600,-84.2910,-0.312,1111122 
COMPS,ioos:station:USF.COMPS:SHP:1,2010-01-01T18:12:00Z,30.0600,-84.2910,-0.283,1111122 
COMPS,ioos:station:USF.COMPS:SHP:1,2010-01-01T18:18:00Z,30.0600,-84.2910,-0.264,1111122 
COMPS,ioos:station:USF.COMPS:SHP:1,2010-01-01T18:24:00Z,30.0600,-84.2910,-0.249,1111122 
COMPS,ioos:station:USF.COMPS:SHP:1,2010-01-01T18:30:00Z,30.0600,-84.2910,-0.231,1111122 
COMPS,ioos:station:USF.COMPS:SHP:1,2010-01-01T18:36:00Z,30.0600,-84.2910,-0.203,1111122 
COMPS,ioos:station:USF.COMPS:SHP:1,2010-01-01T18:42:00Z,30.0600,-84.2910,-0.185,1111122 
COMPS,ioos:station:USF.COMPS:SHP:1,2010-01-01T18:48:00Z,30.0600,-84.2910,-0.173,1111122 
COMPS,ioos:station:USF.COMPS:SHP:1,2010-01-01T18:54:00Z,30.0600,-84.2910,-0.16,1111122 
COMPS,ioos:station:USF.COMPS:SHP:1,2010-01-01T19:00:00Z,30.0600,-84.2910,-0.143,1111122 
COMPS,ioos:station:USF.COMPS:SHP:1,2010-01-01T19:06:00Z,30.0600,-84.2910,-0.12,1111122 
COMPS,ioos:station:USF.COMPS:SHP:1,2010-01-01T19:12:00Z,30.0600,-84.2910,-0.113,1111122 
COMPS,ioos:station:USF.COMPS:SHP:1,2010-01-01T19:18:00Z,30.0600,-84.2910,-0.102,1111122 
COMPS,ioos:station:USF.COMPS:SHP:1,2010-01-01T19:24:00Z,30.0600,-84.2910,-0.096,1111122 
COMPS,ioos:station:USF.COMPS:SHP:1,2010-01-01T19:30:00Z,30.0600,-84.2910,-0.091,1111122 
COMPS,ioos:station:USF.COMPS:SHP:1,2010-01-01T19:36:00Z,30.0600,-84.2910,-0.072,1111122 
COMPS,ioos:station:USF.COMPS:SHP:1,2010-01-01T19:42:00Z,30.0600,-84.2910,-0.053,1111122 
COMPS,ioos:station:USF.COMPS:SHP:1,2010-01-01T19:48:00Z,30.0600,-84.2910,-0.046,1111122 
COMPS,ioos:station:USF.COMPS:SHP:1,2010-01-01T19:54:00Z,30.0600,-84.2910,-0.035,1111122 
COMPS,ioos:station:USF.COMPS:SHP:1,2010-01-01T20:00:00Z,30.0600,-84.2910,-0.012,1111122 
COMPS,ioos:station:USF.COMPS:SHP:1,2010-01-01T20:06:00Z,30.0600,-84.2910,-0.01,1111122 
COMPS,ioos:station:USF.COMPS:SHP:1,2010-01-01T20:12:00Z,30.0600,-84.2910,-0.006,1111122 
COMPS,ioos:station:USF.COMPS:SHP:1,2010-01-01T20:18:00Z,30.0600,-84.2910,0.007,1111122 
COMPS,ioos:station:USF.COMPS:SHP:1,2010-01-01T20:24:00Z,30.0600,-84.2910,0.019,1111122 
COMPS,ioos:station:USF.COMPS:SHP:1,2010-01-01T20:30:00Z,30.0600,-84.2910,0.027,1111122 
COMPS,ioos:station:USF.COMPS:SHP:1,2010-01-01T20:36:00Z,30.0600,-84.2910,0.034,1111122 
COMPS,ioos:station:USF.COMPS:SHP:1,2010-01-01T20:42:00Z,30.0600,-84.2910,0.03,1111122 
COMPS,ioos:station:USF.COMPS:SHP:1,2010-01-01T20:48:00Z,30.0600,-84.2910,0.02,1111122 
COMPS,ioos:station:USF.COMPS:SHP:1,2010-01-01T20:54:00Z,30.0600,-84.2910,0.035,1111122 
COMPS,ioos:station:USF.COMPS:SHP:1,2010-01-01T21:00:00Z,30.0600,-84.2910,0.055,1111122 
COMPS,ioos:station:USF.COMPS:SHP:1,2010-01-01T21:06:00Z,30.0600,-84.2910,0.064,1111122 
COMPS,ioos:station:USF.COMPS:SHP:1,2010-01-01T21:12:00Z,30.0600,-84.2910,0.059,1111122 
COMPS,ioos:station:USF.COMPS:SHP:1,2010-01-01T21:18:00Z,30.0600,-84.2910,0.062,1111122 
COMPS,ioos:station:USF.COMPS:SHP:1,2010-01-01T21:24:00Z,30.0600,-84.2910,0.071,1111122 
COMPS,ioos:station:USF.COMPS:SHP:1,2010-01-01T21:30:00Z,30.0600,-84.2910,0.083,1111122 
COMPS,ioos:station:USF.COMPS:SHP:1,2010-01-01T21:36:00Z,30.0600,-84.2910,0.091,1111122 
COMPS,ioos:station:USF.COMPS:SHP:1,2010-01-01T21:42:00Z,30.0600,-84.2910,0.079,1111122 
COMPS,ioos:station:USF.COMPS:SHP:1,2010-01-01T21:48:00Z,30.0600,-84.2910,0.039,1111122 
COMPS,ioos:station:USF.COMPS:SHP:1,2010-01-01T21:54:00Z,30.0600,-84.2910,0.018,1111122 
COMPS,ioos:station:USF.COMPS:SHP:1,2010-01-01T22:00:00Z,30.0600,-84.2910,0.021,1111122 
COMPS,ioos:station:USF.COMPS:SHP:1,2010-01-01T22:06:00Z,30.0600,-84.2910,0.017,1111122 
COMPS,ioos:station:USF.COMPS:SHP:1,2010-01-01T22:12:00Z,30.0600,-84.2910,0.001,1111122 
COMPS,ioos:station:USF.COMPS:SHP:1,2010-01-01T22:18:00Z,30.0600,-84.2910,-0.006,1111122 
COMPS,ioos:station:USF.COMPS:SHP:1,2010-01-01T22:24:00Z,30.0600,-84.2910,-0.016,1111122 
COMPS,ioos:station:USF.COMPS:SHP:1,2010-01-01T22:30:00Z,30.0600,-84.2910,-0.049,1111122 
COMPS,ioos:station:USF.COMPS:SHP:1,2010-01-01T22:36:00Z,30.0600,-84.2910,-0.074,1111122 
COMPS,ioos:station:USF.COMPS:SHP:1,2010-01-01T22:42:00Z,30.0600,-84.2910,-0.085,1111122 
COMPS,ioos:station:USF.COMPS:SHP:1,2010-01-01T22:48:00Z,30.0600,-84.2910,-0.095,1111122 
COMPS,ioos:station:USF.COMPS:SHP:1,2010-01-01T22:54:00Z,30.0600,-84.2910,-0.11,1111122 
COMPS,ioos:station:USF.COMPS:SHP:1,2010-01-01T23:00:00Z,30.0600,-84.2910,-0.123,1111122 
COMPS,ioos:station:USF.COMPS:SHP:1,2010-01-01T23:06:00Z,30.0600,-84.2910,-0.141,1111122 
COMPS,ioos:station:USF.COMPS:SHP:1,2010-01-01T23:12:00Z,30.0600,-84.2910,-0.157,1111122 
COMPS,ioos:station:USF.COMPS:SHP:1,2010-01-01T23:18:00Z,30.0600,-84.2910,-0.174,1111122 
COMPS,ioos:station:USF.COMPS:SHP:1,2010-01-01T23:24:00Z,30.0600,-84.2910,-0.197,1111122 
COMPS,ioos:station:USF.COMPS:SHP:1,2010-01-01T23:30:00Z,30.0600,-84.2910,-0.219,1111122 
COMPS,ioos:station:USF.COMPS:SHP:1,2010-01-01T23:36:00Z,30.0600,-84.2910,-0.243,1111122 
COMPS,ioos:station:USF.COMPS:SHP:1,2010-01-01T23:42:00Z,30.0600,-84.2910,-0.272,1111122 
COMPS,ioos:station:USF.COMPS:SHP:1,2010-01-01T23:48:00Z,30.0600,-84.2910,-0.296,1111122 
COMPS,ioos:station:USF.COMPS:SHP:1,2010-01-01T23:54:00Z,30.0600,-84.2910,-0.305,1111122 
COMPS,ioos:station:USF.COMPS:SHP:1,2010-01-02T00:00:00Z,30.0600,-84.2910,-0.317,1111122 
COMPS,ioos:station:USF.COMPS:SHP:1,2010-01-02T00:06:00Z,30.0600,-84.2910,-0.338,1111122 
COMPS,ioos:station:USF.COMPS:SHP:1,2010-01-02T00:12:00Z,30.0600,-84.2910,-0.356,1111122 
COMPS,ioos:station:USF.COMPS:SHP:1,2010-01-02T00:18:00Z,30.0600,-84.2910,-0.366,1111122 
COMPS,ioos:station:USF.COMPS:SHP:1,2010-01-02T00:24:00Z,30.0600,-84.2910,-0.37,1111122 
COMPS,ioos:station:USF.COMPS:SHP:1,2010-01-02T00:30:00Z,30.0600,-84.2910,-0.378,1111122 
COMPS,ioos:station:USF.COMPS:SHP:1,2010-01-02T00:36:00Z,30.0600,-84.2910,-0.393,1111122 
COMPS,ioos:station:USF.COMPS:SHP:1,2010-01-02T00:42:00Z,30.0600,-84.2910,-0.404,1111122 
COMPS,ioos:station:USF.COMPS:SHP:1,2010-01-02T00:48:00Z,30.0600,-84.2910,-0.412,1111122 
COMPS,ioos:station:USF.COMPS:SHP:1,2010-01-02T00:54:00Z,30.0600,-84.2910,-0.418,1111122 
COMPS,ioos:station:USF.COMPS:SHP:1,2010-01-02T01:00:00Z,30.0600,-84.2910,-0.425,1111122 
COMPS,ioos:station:USF.COMPS:SHP:1,2010-01-02T01:06:00Z,30.0600,-84.2910,-0.433,1111122 
COMPS,ioos:station:USF.COMPS:SHP:1,2010-01-02T01:12:00Z,30.0600,-84.2910,-0.44,1111122 
COMPS,ioos:station:USF.COMPS:SHP:1,2010-01-02T01:18:00Z,30.0600,-84.2910,-0.441,1111122 
COMPS,ioos:station:USF.COMPS:SHP:1,2010-01-02T01:24:00Z,30.0600,-84.2910,-0.432,1111122 
COMPS,ioos:station:USF.COMPS:SHP:1,2010-01-02T01:30:00Z,30.0600,-84.2910,-0.43,1111122 
COMPS,ioos:station:USF.COMPS:SHP:1,2010-01-02T01:36:00Z,30.0600,-84.2910,-0.438,1111122 
COMPS,ioos:station:USF.COMPS:SHP:1,2010-01-02T01:42:00Z,30.0600,-84.2910,-0.445,1111122 
COMPS,ioos:station:USF.COMPS:SHP:1,2010-01-02T01:48:00Z,30.0600,-84.2910,-0.448,1111122 
COMPS,ioos:station:USF.COMPS:SHP:1,2010-01-02T01:54:00Z,30.0600,-84.2910,-0.448,1111122 
COMPS,ioos:station:USF.COMPS:SHP:1,2010-01-02T02:00:00Z,30.0600,-84.2910,-0.447,1111122 
COMPS,ioos:station:USF.COMPS:SHP:1,2010-01-02T02:06:00Z,30.0600,-84.2910,-0.442,1111122 
COMPS,ioos:station:USF.COMPS:SHP:1,2010-01-02T02:12:00Z,30.0600,-84.2910,-0.436,1111122 
COMPS,ioos:station:USF.COMPS:SHP:1,2010-01-02T02:18:00Z,30.0600,-84.2910,-0.423,1111122 
COMPS,ioos:station:USF.COMPS:SHP:1,2010-01-02T02:24:00Z,30.0600,-84.2910,-0.416,1111122 
COMPS,ioos:station:USF.COMPS:SHP:1,2010-01-02T02:30:00Z,30.0600,-84.2910,-0.405,1111122 
COMPS,ioos:station:USF.COMPS:SHP:1,2010-01-02T02:36:00Z,30.0600,-84.2910,-0.399,1111122 
COMPS,ioos:station:USF.COMPS:SHP:1,2010-01-02T02:42:00Z,30.0600,-84.2910,-0.398,1111122 
COMPS,ioos:station:USF.COMPS:SHP:1,2010-01-02T02:48:00Z,30.0600,-84.2910,-0.397,1111122 
COMPS,ioos:station:USF.COMPS:SHP:1,2010-01-02T02:54:00Z,30.0600,-84.2910,-0.387,1111122 